• In Uzbekistan
  • List of Countries
  • For 7 days
  • Water Temperature
  • Satellite Maps
  • Weather Map
  • Weather Widgets
  • user-avatar
    Login

    Hourly Weather Ventspils

    Today, 22 June, Friday

    Time Temperature Precipitation Wind Pressure Humidity
    00:00 +10°C° 0.1 mm 7 mps 749 mmHg 93%
    01:00 +10°C° 0 mm 8 mps 749 mmHg 92%
    02:00 +10°C° 0.1 mm 8 mps 748 mmHg 90%
    03:00 +10°C° 0.1 mm 9 mps 748 mmHg 88%
    04:00 +9°C° 0.1 mm 10 mps 748 mmHg 86%
    05:00 +11°C° 0.2 mm 10 mps 748 mmHg 79%
    06:00 +12°C° 0.2 mm 11 mps 748 mmHg 73%
    07:00 +13°C° 0 mm 12 mps 748 mmHg 64%
    08:00 +12°C° 0.4 mm 12 mps 749 mmHg 71%
    09:00 +11°C° 0.4 mm 11 mps 750 mmHg 78%
    10:00 +11°C° 0.4 mm 11 mps 750 mmHg 85%
    11:00 +11°C° 0.5 mm 11 mps 751 mmHg 84%
    12:00 +11°C° 0.5 mm 11 mps 752 mmHg 83%
    13:00 +11°C° 0 mm 11 mps 753 mmHg 85%
    14:00 +12°C° 0.3 mm 9 mps 753 mmHg 81%
    15:00 +12°C° 0.3 mm 8 mps 754 mmHg 78%
    16:00 +13°C° 0.3 mm 6 mps 755 mmHg 74%
    17:00 +13°C° 0 mm 6 mps 755 mmHg 73%
    18:00 +13°C° 0 mm 6 mps 755 mmHg 71%
    19:00 +13°C° 0 mm 6 mps 755 mmHg 70%
    20:00 +12°C° 0.2 mm 5 mps 755 mmHg 74%
    21:00 +10°C° 0.2 mm 5 mps 755 mmHg 77%
    22:00 +9°C° 0.2 mm 5 mps 755 mmHg 81%
    23:00 +9°C° 0 mm 5 mps 755 mmHg 83%

    Tomorrow, 23 June, Saturday

    Time Temperature Precipitation Wind Pressure Humidity
    00:00 +8°C° 0 mm 4 mps 756 mmHg 85%
    01:00 +8°C° 0 mm 4 mps 756 mmHg 87%
    02:00 +9°C° 0.1 mm 3 mps 756 mmHg 87%
    03:00 +9°C° 0.1 mm 3 mps 756 mmHg 86%
    04:00 +9°C° 0.1 mm 3 mps 756 mmHg 86%
    05:00 +11°C° 0.1 mm 3 mps 756 mmHg 78%
    06:00 +13°C° 0.1 mm 3 mps 756 mmHg 70%
    07:00 +16°C° 0.1 mm 3 mps 756 mmHg 63%
    08:00 +16°C° 0.1 mm 3 mps 757 mmHg 64%
    09:00 +16°C° 0.1 mm 3 mps 757 mmHg 66%
    10:00 +16°C° 0.1 mm 3 mps 757 mmHg 68%
    11:00 +17°C° 0.1 mm 3 mps 757 mmHg 64%
    12:00 +17°C° 0.1 mm 4 mps 757 mmHg 60%
    13:00 +18°C° 0.1 mm 4 mps 757 mmHg 56%
    14:00 +18°C° 0.1 mm 4 mps 758 mmHg 58%
    15:00 +17°C° 0.1 mm 4 mps 758 mmHg 59%
    16:00 +17°C° 0.1 mm 4 mps 758 mmHg 60%
    17:00 +16°C° 0 mm 3 mps 758 mmHg 64%
    18:00 +14°C° 0 mm 3 mps 758 mmHg 68%
    19:00 +13°C° 0 mm 3 mps 758 mmHg 72%
    20:00 +12°C° 0 mm 3 mps 758 mmHg 78%
    21:00 +10°C° 0 mm 2 mps 758 mmHg 84%
    22:00 +9°C° 0 mm 2 mps 758 mmHg 90%
    23:00 +8°C° 0 mm 2 mps 758 mmHg 91%

    Day after tomorrow, 24 June, Sunday

    Time Temperature Precipitation Wind Pressure Humidity
    00:00 +8°C° 0 mm 2 mps 758 mmHg 92%
    01:00 +8°C° 0 mm 2 mps 758 mmHg 93%
    02:00 +8°C° 0 mm 2 mps 758 mmHg 92%
    03:00 +8°C° 0 mm 2 mps 758 mmHg 91%
    04:00 +9°C° 0 mm 2 mps 758 mmHg 90%
    05:00 +12°C° 0 mm 2 mps 758 mmHg 81%
    06:00 +14°C° 0 mm 2 mps 758 mmHg 72%
    07:00 +16°C° 0 mm 2 mps 758 mmHg 63%
    08:00 +16°C° 0.1 mm 3 mps 758 mmHg 62%
    09:00 +17°C° 0.1 mm 3 mps 758 mmHg 60%
    10:00 +18°C° 0.1 mm 4 mps 758 mmHg 59%
    11:00 +18°C° 0.1 mm 4 mps 758 mmHg 59%
    12:00 +17°C° 0.1 mm 5 mps 758 mmHg 59%
    13:00 +19°C° 0.1 mm 6 mps 758 mmHg 59%
    14:00 +17°C° 0.1 mm 6 mps 758 mmHg 58%
    15:00 +17°C° 0.1 mm 6 mps 758 mmHg 58%
    16:00 +17°C° 0.1 mm 6 mps 758 mmHg 57%
    17:00 +15°C° 0 mm 5 mps 758 mmHg 62%
    18:00 +14°C° 0 mm 5 mps 759 mmHg 66%
    19:00 +13°C° 0 mm 4 mps 759 mmHg 70%
    20:00 +12°C° 0 mm 4 mps 759 mmHg 73%
    21:00 +12°C° 0 mm 4 mps 759 mmHg 76%
    22:00 +11°C° 0 mm 4 mps 759 mmHg 79%
    23:00 +11°C° 0 mm 4 mps 759 mmHg 80%

    25 June, Monday

    Time Temperature Precipitation Wind Pressure Humidity
    00:00 +10°C° 0 mm 4 mps 759 mmHg 82%
    01:00 +10°C° 0 mm 4 mps 759 mmHg 83%
    02:00 +11°C° 0 mm 4 mps 759 mmHg 84%
    03:00 +11°C° 0 mm 4 mps 759 mmHg 86%
    04:00 +11°C° 0 mm 4 mps 759 mmHg 88%
    05:00 +13°C° 0 mm 4 mps 759 mmHg 79%
    06:00 +15°C° 0 mm 4 mps 759 mmHg 70%
    07:00 +18°C° 0 mm 3 mps 759 mmHg 61%
    08:00 +19°C° 0 mm 4 mps 760 mmHg 56%
    09:00 +20°C° 0 mm 4 mps 760 mmHg 51%
    10:00 +21°C° 0 mm 4 mps 760 mmHg 45%
    11:00 +21°C° 0 mm 4 mps 760 mmHg 47%
    12:00 +21°C° 0 mm 4 mps 761 mmHg 48%
    13:00 +21°C° 0 mm 4 mps 761 mmHg 49%
    14:00 +20°C° 0.1 mm 4 mps 761 mmHg 57%
    15:00 +19°C° 0.1 mm 3 mps 761 mmHg 65%
    16:00 +17°C° 0.1 mm 3 mps 762 mmHg 73%
    17:00 +17°C° 0 mm 3 mps 762 mmHg 74%
    18:00 +16°C° 0 mm 3 mps 762 mmHg 76%
    19:00 +16°C° 0 mm 3 mps 762 mmHg 77%
    20:00 +14°C° 0 mm 4 mps 762 mmHg 80%
    21:00 +13°C° 0 mm 4 mps 763 mmHg 83%
    22:00 +13°C° 0 mm 4 mps 763 mmHg 86%
    23:00 +13°C° 0.1 mm 4 mps 763 mmHg 87%

    26 June, Tuesday

    Time Temperature Precipitation Wind Pressure Humidity
    00:00 +13°C° 0.1 mm 4 mps 763 mmHg 89%
    01:00 +13°C° 0.1 mm 4 mps 763 mmHg 90%
    02:00 +13°C° 0 mm 4 mps 763 mmHg 90%
    03:00 +13°C° 0 mm 4 mps 763 mmHg 91%
    04:00 +13°C° 0 mm 4 mps 763 mmHg 91%
    05:00 +15°C° 0 mm 4 mps 764 mmHg 82%
    06:00 +18°C° 0 mm 4 mps 764 mmHg 74%
    07:00 +20°C° 0 mm 4 mps 764 mmHg 65%
    08:00 +21°C° 0 mm 4 mps 765 mmHg 60%
    09:00 +22°C° 0 mm 5 mps 765 mmHg 54%
    10:00 +23°C° 0 mm 5 mps 765 mmHg 48%
    11:00 +23°C° 0 mm 6 mps 765 mmHg 50%
    12:00 +22°C° 0 mm 6 mps 766 mmHg 52%
    13:00 +22°C° 0 mm 6 mps 766 mmHg 54%
    14:00 +21°C° 0 mm 6 mps 766 mmHg 56%
    15:00 +20°C° 0 mm 6 mps 766 mmHg 58%
    16:00 +18°C° 0 mm 7 mps 766 mmHg 61%
    17:00 +17°C° 0 mm 6 mps 766 mmHg 64%
    18:00 +16°C° 0 mm 6 mps 767 mmHg 68%
    19:00 +15°C° 0 mm 5 mps 767 mmHg 71%
    20:00 +14°C° 0 mm 5 mps 767 mmHg 76%
    21:00 +12°C° 0 mm 4 mps 767 mmHg 81%
    22:00 +11°C° 0 mm 4 mps 767 mmHg 86%
    23:00 +11°C° 0 mm 4 mps 767 mmHg 86%

    27 June, Wednesday

    Time Temperature Precipitation Wind Pressure Humidity
    00:00 +11°C° 0 mm 4 mps 767 mmHg 86%
    01:00 +10°C° 0 mm 4 mps 767 mmHg 86%
    02:00 +11°C° 0 mm 4 mps 768 mmHg 84%
    03:00 +11°C° 0 mm 4 mps 768 mmHg 83%
    04:00 +12°C° 0 mm 5 mps 768 mmHg 81%
    05:00 +13°C° 0 mm 5 mps 768 mmHg 73%
    06:00 +15°C° 0 mm 5 mps 768 mmHg 65%
    07:00 +17°C° 0 mm 5 mps 768 mmHg 57%
    08:00 +20°C° 0 mm 4 mps 769 mmHg 51%
    09:00 +21°C° 0 mm 4 mps 769 mmHg 45%
    10:00 +23°C° 0 mm 4 mps 769 mmHg 39%
    11:00 +25°C° 0 mm 4 mps 769 mmHg 36%
    12:00 +25°C° 0 mm 4 mps 769 mmHg 34%
    13:00 +26°C° 0 mm 4 mps 769 mmHg 32%
    14:00 +25°C° 0 mm 4 mps 769 mmHg 34%
    15:00 +25°C° 0 mm 4 mps 769 mmHg 36%
    16:00 +23°C° 0 mm 4 mps 769 mmHg 38%
    17:00 +22°C° 0 mm 3 mps 769 mmHg 45%
    18:00 +20°C° 0 mm 3 mps 769 mmHg 51%
    19:00 +19°C° 0 mm 2 mps 769 mmHg 58%
    20:00 +17°C° 0 mm 2 mps 769 mmHg 59%
    21:00 +16°C° 0 mm 2 mps 770 mmHg 59%
    22:00 +15°C° 0 mm 2 mps 770 mmHg 60%
    23:00 +15°C° 0 mm 1 mps 770 mmHg 59%
    Show more